Location: ????????
(60.5616°N, 46.8254°E)
Time: 06:01:52
(UTC+00:00)

Nadezhda 4 Rocket - Pass Details

Date: 18 February 2020
Orbit: 951 x 991 km, 82.9° (Epoch: 28 March)

Event Time Altitude Azimuth Distance (km) Brightness Sun altitude
Rises 16:02:27 0° 344° (NNW) 3,675 7.3 -17.0°
Reaches altitude 10° 16:05:04 10° 350° (N) 2,731 6.5 -17.3°
Maximum altitude 16:11:07 49° 65° (ENE) 1,256 4.2 -18.0°
Enters shadow 16:14:26 26° 126° (SE) 1,836 4.9 -18.4°
